[[[{"header":{"parameterUnit":"kt","parameterCategory":2,"dx":1,"dy":1,"la1":30.253999710083008,"la2":30.299108505249023,"lo1":-89.0895004272461,"lo2":-89.04439544677734,"nx":28,"ny":28,"refTime":"2022-09-26T21:00:00:Z","depth":0,"parameterNumber":1,"parameterNumberName":"U-component_of_WINDS"},"data":[-9.8033,-9.8198,-9.8177,-9.8354,-9.8364,-9.8481,-9.8516,-9.8557,-9.8585,-9.8719,-9.8792,-9.8785,-9.8801,-9.8881,-9.8957,-9.8952,-9.8987,-9.906,-9.9042,-9.8731,-9.8687,-9.8645,-9.8606,-9.9068,-9.9068,-9.9367,-9.937,-9.9372,-9.7807,-9.7821,-9.7908,-9.7978,-9.8053,-9.7968,-9.8016,-9.8083,-9.8189,-9.8223,-9.8294,-9.8409,-9.8497,-9.8487,-9.8567,-9.8641,-9.8606,-9.8664,-9.866,-9.8664,-9.8331,-9.829,-9.8692,-9.8692,-9.8692,-9.8692,-9.8692,-9.8691,-9.7391,-9.749,-9.7521,-9.7615,-9.7644,-9.769,-9.778,-9.777,-9.7854,-9.7937,-9.7892,-9.801,-9.8038,-9.8122,-9.8144,-9.8234,-9.8164,-9.8221,-9.8236,-9.8252,-9.8274,-9.7849,-9.8246,-9.8245,-9.8243,-9.8242,-9.8241,0,-9.708,-9.7056,-9.7138,-9.7214,-9.7281,-9.7337,-9.7385,-9.7439,-9.7376,-9.7448,-9.7549,-9.7603,-9.7709,-9.78,-9.7869,-9.7879,-9.7798,-9.7786,-9.7826,-9.7852,-9.7866,-9.7862,-9.7322,-9.7775,-9.7771,-9.7768,-9.7766,-9.7765,-9.666,-9.6778,-9.6798,-9.6859,-9.6879,-9.6977,-9.7031,-9.6967,-9.7026,-9.7073,-9.7163,-9.7253,-9.7323,-9.7486,-9.747,-9.7549,-9.751,-9.7686,-9.7522,-9.7541,-9.7516,-9.7511,-9.7522,-9.7721,-9.7726,-9.7731,-9.7735,0,-9.6426,-9.639,-9.6565,-9.6572,-9.6577,-9.6703,-9.6708,-9.6804,-9.6782,-9.691,-9.6935,-9.6902,-9.7001,-9.6957,-9.706,-9.7034,-9.7239,-9.7198,-9.7229,-9.7219,-9.7374,-9.7361,-9.788,-9.7945,-9.7462,-9.7467,-9.7471,0,-9.6055,-9.6211,-9.6148,-9.6251,-9.6422,-9.6354,-9.6525,-9.6523,-9.6547,-9.6647,-9.6547,-9.6642,-9.657,-9.6658,-9.662,-9.6779,-9.6797,-9.6787,-9.6776,-9.6798,-9.68,-9.683,-9.6809,-9.6742,-9.6739,-9.6737,-9.6735,0,-9.5695,-9.5843,-9.601,-9.6038,-9.6061,-9.6141,-9.6154,-9.6179,-9.6232,-9.6292,-9.6325,-9.64,-9.6442,-9.6501,-9.6451,-9.6341,-9.6644,-9.6482,-9.6633,-9.6635,-9.6705,-9.6702,-9.717,-9.6731,-9.6731,-9.673,-9.6729,0,-9.539,-9.5455,-9.5702,-9.5719,-9.576,-9.587,-9.594,-9.6023,-9.6057,-9.604,-9.6087,-9.6015,-9.615,-9.5993,-9.6177,-9.6048,-9.6095,-9.6096,-9.6106,-9.6118,-9.5945,-9.6218,-9.6666,-9.6712,-9.6125,-9.612,-9.6116,0,-9.4989,-9.5229,-9.5172,-9.5408,-9.5513,-9.5395,-9.5514,-9.5548,-9.5535,-9.562,-9.5604,-9.5702,-9.5575,-9.56,-9.5696,-9.5685,-9.5851,-9.566,-9.5784,-9.579,-9.5782,-9.6193,-9.6273,-9.6572,-9.6051,-9.6058,-9.6063,0,-9.4674,-9.4702,-9.4748,-9.4777,-9.4811,-9.4897,-9.5034,-9.5116,-9.5177,-9.5224,-9.5337,-9.5472,-9.5382,-9.5424,-9.5373,-9.5477,-9.5736,-9.5366,-9.5366,-9.5437,-9.6013,-9.6088,-9.6139,-9.5679,-9.5687,-9.5693,-9.6011,0,-9.4226,-9.4341,-9.4463,-9.453,-9.4589,-9.4734,-9.4688,-9.4756,-9.4702,-9.4685,-9.485,-9.4864,-9.4947,-9.4991,-9.4939,-9.5189,-9.5141,-9.5044,-9.489,-9.5159,-9.5263,-9.5305,-9.474,-9.4735,-9.4731,-9.4727,0,0,-9.3853,-9.4016,-9.3949,-9.4081,-9.4127,-9.4003,-9.4162,-9.4192,-9.4256,-9.429,-9.4203,-9.4397,-9.4413,-9.4618,-9.4698,-9.4731,-9.4772,-9.468,-9.5031,-9.5065,-9.5097,-9.5208,-9.5253,-9.472,-9.4719,-9.4717,-9.4716,0,-9.3681,-9.3701,-9.3859,-9.3888,-9.3927,-9.3902,-9.394,-9.3957,-9.3953,-9.4114,-9.4009,-9.4102,-9.4258,-9.4289,-9.4326,-9.4653,-9.4569,-9.4681,-9.4874,-9.4992,-9.5031,-9.5066,-9.5184,-9.5227,-9.4706,-9.4707,-9.4707,0,-9.3364,-9.3378,-9.3449,-9.3548,-9.3572,-9.3682,-9.3509,-9.3632,-9.3713,-9.3569,-9.3731,-9.3733,-9.377,-9.397,-9.4057,-9.3981,-9.4387,-9.425,-9.4274,-9.4284,-9.4395,-9.4443,-9.4485,-9.3928,-9.3926,-9.3924,0,0,-9.3222,-9.3327,-9.3321,-9.3507,-9.353,-9.3494,-9.3547,-9.3499,-9.3536,-9.3551,-9.3553,-9.3591,-9.368,-9.3741,-9.3823,-9.4048,-9.4051,-9.4156,-9.4193,-9.4223,-9.4249,-9.4369,-9.4416,-9.3914,-9.3914,-9.3914,0,0,-9.3153,-9.3154,-9.3093,-9.3304,-9.3343,-9.3348,-9.3464,-9.3389,-9.3458,-9.3436,-9.336,-9.3367,-9.3552,-9.3558,-9.3437,-9.3768,-9.3616,-9.3644,-9.3758,-9.3803,-9.3839,-9.3835,-9.3262,0,0,0,0,0,-9.2954,-9.3153,-9.3099,-9.3127,-9.3251,-9.3379,-9.3394,-9.3336,-9.323,-9.3323,-9.3312,-9.3218,-9.3477,-9.3367,-9.3396,-9.3533,-9.3792,-9.3814,-9.3834,-9.4033,-9.4081,-9.4122,0,0,0,0,0,0,-9.2965,-9.3,-9.3093,-9.3108,-9.3135,-9.3371,-9.3179,-9.3169,-9.3219,-9.3199,-9.3223,-9.3218,-9.3171,-9.3349,-9.3376,-9.3507,-9.3252,-9.3801,-9.3819,-9.3835,-9.405,-9.4089,-9.4123,0,0,0,0,0,-9.2973,-9.3001,-9.3216,-9.3105,-9.3128,-9.3099,-9.3171,-9.3161,-9.3199,-9.3182,-9.3175,-9.3151,-9.3176,-9.3194,-9.3364,-9.3496,-9.3234,-9.3244,-9.3812,-9.3827,-9.384,-9.4069,0,0,0,0,0,0,-9.2979,-9.2992,-9.3219,-9.3224,-9.3025,-9.3084,-9.3092,-9.3155,-9.3177,-9.3172,-9.3105,-9.3089,-9.3182,-9.3195,-9.321,-9.3496,-9.3218,-9.3228,-9.3235,-9.3823,-9.3835,-9.3845,0,0,0,0,0,0,-9.2976,-9.2997,-9.3221,-9.3125,-9.3118,-9.3072,-9.3078,-9.3213,-9.3179,-9.3098,-9.3086,-9.3098,-9.3159,-9.3197,-9.3208,-9.3421,-9.3206,-9.3216,-9.3223,-9.3227,-9.3833,-9.3842,0,0,0,0,0,0,-9.2984,-9.3002,-9.3123,-9.3118,-9.3111,-9.3163,-9.3189,-9.332,-9.3097,-9.3099,-9.3075,-9.3066,-9.3164,-9.3174,-9.3207,-9.3417,-9.342,-9.3206,-9.3213,-9.3218,-9.3221,0,0,0,0,0,0,0,-9.299,-9.2885,-9.319,-9.3112,-9.3106,-9.327,-9.3271,-9.3273,-9.3095,-9.3086,-9.3078,-9.307,-9.3149,-9.316,-9.3171,-9.3413,0,0,-9.3205,-9.321,0,0,0,0,0,0,0,0,-9.2876,-9.2883,-9.319,-9.3191,-9.3192,-9.327,-9.3271,-9.3272,-9.3094,-9.3087,-9.308,-9.3073,-9.3152,-9.3161,-9.317,0,0,0,0,0,0,0,0,0,0,0,0,0,0,0,-9.319,-9.3191,0,-9.327,-9.3271,-9.3272,-9.3093,-9.3087,-9.3081,-9.3076,-9.3155,-9.3162,-9.3169,0,0,0,0,0,0,0,0,0,0,0,0,0,0,0,0,0,0,0,0,0,0,0,0,0,0,0,0,0,0,0,0,0,0,0,0,0,0,0,0,0,0,0,0,0,0,0,0,0,0,0,0,0,0,0,0,0,0,0,0,0,0,0,0,0,0,0,0,0]}],[{"header":{"parameterUnit":"kt","parameterCategory":2,"dx":1,"dy":1,"la1":30.253999710083008,"la2":30.299108505249023,"lo1":-89.0895004272461,"lo2":-89.04439544677734,"nx":28,"ny":28,"refTime":"2022-09-26T21:00:00:Z","depth":0,"parameterNumber":2,"parameterNumberName":"V-component_of_WINDS"},"data":[-17.4573,-17.4813,-17.4812,-17.5083,-17.5126,-17.531,-17.5374,-17.5455,-17.5518,-17.5731,-17.5852,-17.587,-17.5927,-17.6067,-17.6194,-17.6197,-17.6252,-17.634,-17.6329,-17.5945,-17.5891,-17.584,-17.5785,-17.6351,-17.6352,-17.6728,-17.6731,-17.6734,-17.4293,-17.4341,-17.4484,-17.4621,-17.4742,-17.4658,-17.4757,-17.4863,-17.5027,-17.5105,-17.5224,-17.541,-17.5553,-17.558,-17.5716,-17.5823,-17.5788,-17.586,-17.5852,-17.5862,-17.5451,-17.5394,-17.5886,-17.5886,-17.5886,-17.5886,-17.5885,-17.5885,-17.3783,-17.3927,-17.4009,-17.4164,-17.4231,-17.4321,-17.4455,-17.4476,-17.4612,-17.4758,-17.4724,-17.4907,-17.4981,-17.514,-17.5191,-17.533,-17.5249,-17.5324,-17.5343,-17.5363,-17.5387,-17.4849,-17.5352,-17.535,-17.5349,-17.5348,-17.5347,0,-17.3408,-17.3398,-17.3534,-17.3671,-17.3783,-17.3887,-17.398,-17.4062,-17.403,-17.4144,-17.4306,-17.4397,-17.4576,-17.4725,-17.4849,-17.4886,-17.4804,-17.4794,-17.4846,-17.4868,-17.4871,-17.4873,-17.4205,-17.4779,-17.4774,-17.4771,-17.4768,-17.4766,-17.2894,-17.3062,-17.3145,-17.3241,-17.3292,-17.3446,-17.3536,-17.3496,-17.3593,-17.3698,-17.3824,-17.3973,-17.4091,-17.4346,-17.436,-17.4492,-17.4453,-17.4674,-17.4472,-17.4486,-17.4458,-17.445,-17.4466,-17.4714,-17.4721,-17.4726,-17.4731,0,-17.2605,-17.26,-17.2857,-17.2921,-17.2942,-17.3117,-17.3169,-17.3308,-17.331,-17.35,-17.3542,-17.3544,-17.3701,-17.368,-17.3853,-17.3836,-17.412,-17.4078,-17.4095,-17.4086,-17.4282,-17.4264,-17.492,-17.5003,-17.4415,-17.442,-17.4425,0,-17.2165,-17.2384,-17.2363,-17.2513,-17.2754,-17.2708,-17.2947,-17.2973,-17.3037,-17.3186,-17.3092,-17.3233,-17.3183,-17.332,-17.3296,-17.3523,-17.3555,-17.3556,-17.3547,-17.3566,-17.3566,-17.3615,-17.3588,-17.3519,-17.3516,-17.3513,-17.351,0,-17.1714,-17.1959,-17.2201,-17.2255,-17.2344,-17.2457,-17.2498,-17.2569,-17.2656,-17.2765,-17.2821,-17.295,-17.3021,-17.312,-17.3089,-17.2954,-17.3366,-17.3172,-17.3366,-17.3368,-17.346,-17.3455,-17.404,-17.3506,-17.3505,-17.3504,-17.3503,0,-17.1357,-17.1474,-17.1826,-17.1897,-17.1962,-17.212,-17.2247,-17.2377,-17.2458,-17.2454,-17.2538,-17.2472,-17.2669,-17.2479,-17.2748,-17.258,-17.2654,-17.2672,-17.2686,-17.2703,-17.2492,-17.2826,-17.3385,-17.3443,-17.2717,-17.2711,-17.2705,0,-17.0844,-17.1196,-17.1161,-17.1494,-17.1654,-17.1539,-17.1712,-17.1787,-17.1797,-17.193,-17.1938,-17.209,-17.1944,-17.1988,-17.2123,-17.2137,-17.2354,-17.2106,-17.2296,-17.2303,-17.2281,-17.2794,-17.2884,-17.3265,-17.2621,-17.263,-17.2636,0,-17.0444,-17.0552,-17.0615,-17.0675,-17.0769,-17.0901,-17.11,-17.1242,-17.1333,-17.1426,-17.1591,-17.1801,-17.17,-17.1774,-17.1732,-17.1875,-17.2205,-17.1746,-17.1747,-17.183,-17.2576,-17.2661,-17.2725,-17.2145,-17.2155,-17.2164,-17.2569,0,-16.9909,-17.0084,-17.0251,-17.0386,-17.0485,-17.0692,-17.0673,-17.0778,-17.073,-17.0735,-17.0975,-17.1028,-17.1169,-17.1234,-17.1187,-17.1521,-17.1461,-17.1351,-17.1165,-17.1501,-17.1634,-17.1689,-17.0968,-17.0962,-17.0958,-17.0954,0,0,-16.942,-16.967,-16.9623,-16.9817,-16.9897,-16.9774,-16.9997,-17.006,-17.019,-17.0247,-17.0143,-17.0449,-17.0496,-17.0789,-17.0892,-17.0948,-17.1005,-17.0888,-17.1341,-17.1384,-17.1424,-17.1567,-17.1624,-17.0945,-17.0944,-17.0942,-17.094,0,-16.9221,-16.9279,-16.9501,-16.9565,-16.9659,-16.9654,-16.9707,-16.9776,-16.979,-17.0025,-16.9917,-17.0057,-17.0303,-17.0367,-17.0432,-17.0853,-17.0762,-17.0896,-17.1131,-17.1294,-17.1343,-17.1387,-17.1538,-17.1593,-17.0929,-17.093,-17.093,0,-16.8826,-16.888,-16.8985,-16.9163,-16.9222,-16.9388,-16.919,-16.9373,-16.9494,-16.9345,-16.958,-16.9607,-16.969,-16.9969,-17.0093,-17.0002,-17.0542,-17.0366,-17.0396,-17.0409,-17.0565,-17.0625,-17.0678,-16.9978,-16.9975,-16.9972,0,0,-16.8656,-16.8818,-16.8861,-16.9119,-16.9164,-16.916,-16.9245,-16.9206,-16.9287,-16.9319,-16.9351,-16.943,-16.9571,-16.9665,-16.9797,-17.0106,-17.0119,-17.025,-17.0295,-17.0332,-17.0365,-17.0531,-17.059,-16.996,-16.996,-16.9959,0,0,-16.8573,-16.8635,-16.8574,-16.8871,-16.8954,-16.901,-16.9167,-16.9092,-16.9209,-16.9182,-16.9121,-16.9139,-16.9399,-16.9428,-16.927,-16.9729,-16.9545,-16.9583,-16.9702,-16.9758,-16.9802,-16.979,-16.907,0,0,0,0,0,-16.8361,-16.8628,-16.8571,-16.8619,-16.8842,-16.9042,-16.907,-16.9028,-16.89,-16.9025,-16.9039,-16.8936,-16.933,-16.9188,-16.9234,-16.9411,-16.9804,-16.9832,-16.9858,-17.0083,-17.0143,-17.0192,0,0,0,0,0,0,-16.8379,-16.8437,-16.8564,-16.8633,-16.8683,-16.9032,-16.8805,-16.8801,-16.8885,-16.8863,-16.8937,-16.8939,-16.8904,-16.9162,-16.9203,-16.9373,-16.9056,-16.9815,-16.9838,-16.986,-17.0104,-17.0152,-17.0194,0,0,0,0,0,-16.8394,-16.844,-16.881,-16.8629,-16.8672,-16.868,-16.8795,-16.879,-16.8853,-16.8876,-16.8874,-16.8814,-16.891,-16.8942,-16.9186,-16.9356,-16.9027,-16.9043,-16.983,-16.9849,-16.9865,-17.0127,0,0,0,0,0,0,-16.8404,-16.8435,-16.8817,-16.8829,-16.8525,-16.8659,-16.8679,-16.878,-16.886,-16.8862,-16.8749,-16.873,-16.8917,-16.894,-16.8966,-16.9352,-16.9003,-16.9019,-16.9029,-16.9844,-16.9859,-16.9872,0,0,0,0,0,0,-16.841,-16.8446,-16.8823,-16.8695,-16.8691,-16.8641,-16.8659,-16.8859,-16.8862,-16.8728,-16.8715,-16.874,-16.8878,-16.8942,-16.896,-16.9274,-16.8985,-16.9,-16.9011,-16.9018,-16.9856,-16.9867,0,0,0,0,0,0,-16.8424,-16.8455,-16.8692,-16.8689,-16.8685,-16.8809,-16.8816,-16.9046,-16.8757,-16.8726,-16.873,-16.8717,-16.8882,-16.89,-16.8958,-16.9264,-16.9272,-16.8985,-16.8996,-16.9003,-16.9008,0,0,0,0,0,0,0,-16.8436,-16.8239,-16.8751,-16.8684,-16.868,-16.8934,-16.8937,-16.894,-16.8754,-16.8743,-16.8733,-16.8722,-16.8898,-16.8914,-16.8931,-16.9256,0,0,-16.8984,-16.8991,0,0,0,0,0,0,0,0,-16.8225,-16.8236,-16.8751,-16.8753,-16.8756,-16.8935,-16.8937,-16.894,-16.8753,-16.8744,-16.8735,-16.8727,-16.8902,-16.8916,-16.8929,0,0,0,0,0,0,0,0,0,0,0,0,0,0,0,-16.8751,-16.8753,0,-16.8935,-16.8937,-16.8939,-16.8751,-16.8744,-16.8737,-16.873,-16.8906,-16.8917,-16.8928,0,0,0,0,0,0,0,0,0,0,0,0,0,0,0,0,0,0,0,0,0,0,0,0,0,0,0,0,0,0,0,0,0,0,0,0,0,0,0,0,0,0,0,0,0,0,0,0,0,0,0,0,0,0,0,0,0,0,0,0,0,0,0,0,0,0,0,0,0]}]]]